Regional Weather Roundup
Issued by NWS

Home | Current Version | Previous Version | Graphics & Text | Print | Product List | Glossary Off
Versions: 1 2 3 4 5 6 7 8 9 10 11 12 13 14 15 16 17 18 19 20 21 22 23 24 25 26 27 28 29 30 31 32 33 34 35 36 37 38 39 40 41 42 43 44 45 46 47 48 49 50

000
ASUS43 KTOP 120908
RWRKS

WEATHER ROUNDUP FOR KANSAS
NATIONAL WEATHER SERVICE GOODLAND KS
300 AM CST TUE DEC 12 2017

NOTE:  "FAIR" INDICATES FEW OR NO CLOUDS BELOW 12,000 FEET WITH NO
SIGNIFICANT WEATHER AND/OR OBSTRUCTIONS TO VISIBILITY.

KSZ001>006-013>018-027>032-041>047-121000-
NORTHWEST KANSAS

CITY           SKY/WX    TMP DP  RH WIND       PRES   REMARKS
GOODLAND       CLOUDY    21  12  68 W8        30.41S
HAYS           CLOUDY    25  22  88 W7        30.42R
HILL CITY      CLOUDY    29  22  75 NW12      30.42S WCI  19
RUSSELL        CLEAR     26  24  92 W8        30.40R
$$

KSZ061>065-074>080-084>089-121000-
SOUTHWEST KANSAS

CITY           SKY/WX    TMP DP  RH WIND       PRES   REMARKS
DODGE CITY     CLOUDY    26  19  74 NW10      30.43S WCI  16
ELKHART        CLOUDY    33  14  46 NW6       30.46R
GARDEN CITY    CLEAR     21  13  71 W9        30.44S
GREAT BEND     CLEAR     27  23  85 NW9       30.41S
LIBERAL        CLOUDY    24  14  65 NW7       30.46S
PRATT          CLEAR     27  22  82 W10       30.42R WCI  18
$$

KSZ066>073-081>083-090>101-121000-
SOUTHEAST KANSAS

CITY           SKY/WX    TMP DP  RH WIND       PRES   REMARKS
CHANUTE        CLEAR     35  25  66 N12       30.34R WCI  27
COFFEYVILLE    CLEAR     37  28  70 N12       30.34R WCI  29
HUTCHINSON     CLEAR     32  26  78 NW8       30.39R
MEDICINE LODGE   N/A     30  25  81 N8        30.41R
NEWTON         CLEAR     32  25  75 N12       30.38R WCI  23
PARSONS        CLEAR     36  28  73 N14G22    30.34R WCI  27
WICHITA INTL   CLEAR     35  28  75 N12       30.38R WCI  27
WICHITA JABRA  CLEAR     33  26  75 N10       30.38R WCI  25
WICHITA MCCONL CLEAR     34  25  71 N10       30.37R WCI  26
WINFIELD       CLEAR     27  24  89 N9        30.39R
$$

KSZ007>012-019>026-033>040-048>060-102>105-121000-
NORTHEAST KANSAS

CITY           SKY/WX    TMP DP  RH WIND       PRES   REMARKS
CONCORDIA      CLEAR     28  22  78 NW8       30.39R
EMPORIA        CLEAR     31  23  72 NW12      30.35R WCI  22
LAWRENCE       CLEAR     28  19  69 NW12      30.34R WCI  18
MANHATTAN      CLEAR     33  24  69 N6        30.39R
MARYSVILLE     CLEAR     27  23  86 NW9       30.38R
OLATHE IND     CLEAR     28  18  66 NW14      30.32R WCI  17
OLATHE EXE     CLEAR     28  19  69 N14G24    30.30R WCI  17
SALINA         CLEAR     30  22  72 NW8       30.41R
TOPEKA BILLARD CLEAR     29  21  72 NW8       30.35R
TOPEKA FORBES  CLEAR     31  21  66 N14       30.34R WCI  21
$$




USA.gov is the U.S. government's official web portal to all federal, state and local government web resources and services.